Вернуться в каталог

DELTA 1 DEB

АктивенPO
NORAD 8969·DEBRIS·🇺🇸 United States

Запущен Jan 22, 1975 с Vandenberg Space Force Base

Loading…

Ближайшие Пролёты (ближайшие 24 часа)

TLE

СвежийSource: Space-Track

Эпоха: Sep 14, 2026, 10:19 UTC

1 08969U 75004BB  26257.42995915  .00000638  00000-0  20536-3 0  9990
2 08969  97.6844 328.8135 0115808 186.7285 173.2356 14.38442200628698

Отслеживайте DELTA 1 DEB в реальном времени с AllMySat

Download on the App Store